User: anonymous   Login
Location: Fountain Hills
(33.6120°N, 111.7170°W)
Time: 03:46:00
(UTC-07:00)
Language:

Hamsat - Orbit

View from above orbital plane
View from above orbital plane
View from above satellite
View from above satellite

Ground track
Ground track

The orbit data is extracted from the following two-line orbital elements,

1 28650U 05017B   17142.88179694 +.00000370 +00000-0 +45286-4 0  9990
2 28650 097.6491 118.0803 0022628 211.3625 148.6244 14.88653303652407
Epoch (UTC): 22 May 2017 21:09:47
Eccentricity: 0.0022628
inclination: 97.6491°
perigee height: 586 km
apogee height: 618 km
right ascension of ascending node: 118.0803°
argument of perigee: 211.3625°
revolutions per day: 14.88653303
mean anomaly at epoch: 148.6244°
orbit number at epoch: 65240

The dashed part of the orbit path shows where the satellite is in the earth's shadow,  

DLR